Regional Weather Roundup
Issued by NWS

Home | Current Version | Previous Version | Text Only | Print | Product List | Glossary On
Versions: 1 2 3 4 5 6 7 8 9 10 11 12 13 14 15 16 17 18 19 20 21 22 23 24 25 26 27 28 29 30 31 32 33 34 35 36 37 38 39 40 41 42 43 44 45 46 47
000
ASPQ40 PGUM 021112
RWRPQ
WEATHER ROUNDUP FOR THE MARIANAS AND MICRONESIA
NATIONAL WEATHER SERVICE TIYAN GU
900 PM CHST THU OCT 02 2014

GUZ001>004-021200-
MARIANA ISLANDS-

CITY           SKY/WX    TMP DP  RH WIND       PRES   REMARKS
GUAM AIRPORT   PTCLDY    81  75  83 S7        29.73R
ANDERSEN AFB   MOCLDY    79  75  89 SW12      29.73
ROTA AIRPORT   NOT AVBL
TINIAN AP      NOT AVBL
SAIPAN AP      PTCLDY    82  79  89 S9        29.72S HX  93

$$

PMZ161-021200-
REPUBLIC OF PALAU-

CITY           SKY/WX    TMP DP  RH WIND       PRES   REMARKS
KOROR AP       CLOUDY    82  77  83 SW15      29.74R HX  91
KOROR WSO      CLOUDY    82  75  78 W9        29.73R

$$

PMZ171>174-021200-
FEDERATED STATES OF MICRONESIA-

CITY           SKY/WX    TMP DP  RH WIND       PRES   REMARKS
YAP AIRPORT    CLOUDY    82  75  78 SW12      29.71R
CHUUK AP       CLOUDY    79  77  94 VRB6      29.81S
POHNPEI AP     CLOUDY    81  77  89 NW12G24   29.77
POHNPEI WSO    CLOUDY    79  75  89 W9        29.82R
KOSRAE AP      NOT AVBL

$$

PMZ181-021200-
REPUBLIC OF THE MARSHALL ISLANDS-

CITY           SKY/WX    TMP DP  RH WIND       PRES   REMARKS
KWAJALEIN AP   LGT RAIN  77  73  88 S12       29.85S
MAJURO AP      NOT AVBL
MAJURO WSO     CLOUDY    82  75  78 NW6       29.81S

$$



USA.gov is the U.S. government's official web portal to all federal, state and local government web resources and services.